Showing default

YAM-7, 60504

Orbit data source: Space-Track

YAM-7, 60504 is an American payload satellite in SSO that was launched on Fri, 16 Aug 2024 UTC via an FALCON 9 launch vehicle from the Air Force Western Test Range (AFWTR). Payload-class satellites include a variety of spacecraft equipped with specific instruments for various scientific and technological missions. These include communications satellites like Starlink; space stations such as the ISS; scientific satellites like the Hubble; Earth observation satellites from companies like Planet Labs, Umbra, and HawkEye 360; GPS; miniature CubeSats for education and research; and military/defense satellites.

Loading next visibility...
Identifier
60504, 2024-149AN
Orbit
SSO
Country
Flag of USUS
Related business
Manufacturer
LeoStella
Mission
Operational Commercial Technology
Bus & Motor
YAM, Unknown motor
Mass
91 kg wet, 91 kg dry
Launch date (UTC)
2024-08-16 (1 year ago)
Launch vehicle
FALCON 9
Launch site
Air Force Western Test Range (AFWTR)
Object type
Payload
Rocket body
Debris
Shape & HBR
Box, 1.0 m
Radar Cross Section
0.875 m², Medium (>0.1 m² and < 1m²)

Expand to show TLE details & history
Last TLE update: 13 hours ago

TLE from 13 hours ago
0 YAM-7
1 60504U 24149AN  25351.80853570  .00006618  00000-0  23988-3 0  9991
2 60504  97.3975  68.0477 0002913 196.5367 163.5778 15.28693853 74313
Epoch: 2025-12-17T19:24Z
TLE epoch observation values (Epoch: 2025-12-17T19:24:17.484Z)
Latitude
-0.00006°
Longitude
50.30178°
Altitude
484.735 km
Speed
7.622 km/s
True Right ascension
04h 32m 11s
True Declination
0° 00' 00"
Sunlit
Object was in full shadow at epoch
Visualization orbit readout
Latitude
Unknown
Longitude
Unknown
Altitude
Unknown
Speed
Unknown
Apparent Right ascension
Unknown
Apparent Declination
Unknown
Sunlit
N/A
Visualization observer readout
Local Sidereal Time
07:24:49
Azimuth
Unknown
Elevation
Unknown
Doppler factor
Unknown
Orbital elements
Apogee altitude
478.667 km
Perigee altitude
474.673 km
Semi-major axis
6,854.807 km
Eccentricity
0.00029
Inclination
97.3975°
RAAN
68.0477°
Arg. of periapsis
196.5367°
True anomaly
163.58723°
Mean anomaly
163.5778°
Eccentric anomaly
163.58252°
Mean motion
3.82429 °/min
Orbital period
94.14 mins
BSTAR
0.00023988
Loading maneuver chart data...
Computing Atmospheric mass density...
Loading historical data...
Loading historical data...
Loading historical data...
Loading historical data...
Loading historical data...
Loading historical data...
Loading historical data...

Documentation

Showing up to 5 results
|